Content
SEND FEEDBACK

Daily
Averages
Monthly
Summary
Iran

MASHHAD, IRAN


Home > Middle East > Iran
Elevation: 3214 feet     Latitude: 36 16N     Longitude: 059 38E

WEATHER
 
SELECT A DAY
Number of Records: 199,562;   Date Range: 2/9/98 - 7/9/14
 
SHARE

PRINT THIS DATA

[ ← Previous Day ]
WEATHER ALMANAC - JANUARY 6, 2013
[ Next Day → ]
[ °C ]   °F
Weather ElementAverageHighLow
Temperature37.7 °F46.4 °F (2:30 pm)24.8 °F (7:00 am)
Dewpoint25.5 °F30.2 °F (2:00 pm)19.4 °F (7:00 am)
Humidity61.6 %80 % (7:00 am)46 % (9:30 am)
Barometer29.91 in30.02 in (9:30 pm)29.83 in (3:00 am)
Wind Speed5.4 mph13.8 mph (8:00 pm)
Weather ElementAverage
Visibility5 mi
Wind DirectionSSE (163.3 °)

Weather ElementTotal
Precipitation---
Heating Degree Days29.4 (Base 65)
Averaged from 49 records on January 6, 2013
WEATHER CONDITIONS BREAKOUT
WIND DIRECTION BREAKOUT
WEATHER BY HOUR - JANUARY 6, 2013
[ °C ]   °F
Local TimeTemperatureDewpointHumidityBarometerVisibilityWind DirectionWind SpeedGust SpeedPrecipitationEventsConditions
12:30 AM35.6 °F23.0 °F60 %29.86 inWNW (290°)6.9 mphClear
1:30 AM39.2 °F23.0 °F52 %29.86 inWest (280°)9.2 mphClear
2:00 AM39.2 °F23.0 °F52 %29.86 inWNW (290°)6.9 mphClear
2:30 AM39.2 °F23.0 °F52 %29.86 inWNW (290°)9.2 mphClear
3:00 AM39.2 °F23.0 °F52 %29.83 inWNW (290°)9.2 mphClear
3:30 AM33.8 °F23.0 °F65 %29.86 inNW (320°)6.9 mphClear
3:30 AM34.0 °F23.0 °F51 %29.91 in9.0 miNW (320°)6.7 mph
4:00 AM32.0 °F23.0 °F69 %29.86 inSE (130°)6.9 mphClear
4:30 AM32.0 °F23.0 °F69 %29.86 inSSE (160°)4.6 mphClear
5:00 AM30.2 °F23.0 °F75 %29.86 inSW (230°)4.6 mphClear
5:30 AM30.2 °F23.0 °F75 %29.86 inWNW (290°)4.6 mphClear
6:00 AM30.2 °F23.0 °F75 %29.86 inSSE (160°)4.6 mphClear
6:30 AM30.2 °F23.0 °F75 %29.86 inSouth (180°)4.6 mphClear
7:00 AM24.8 °F19.4 °F80 %29.89 in6.2 miESE (110°)6.9 mphPartly Cloudy
7:30 AM26.6 °F21.2 °F80 %29.89 in6.2 miSSE (150°)4.6 mphPartly Cloudy
8:00 AM33.8 °F24.8 °F70 %29.92 in5.0 miNE (40°)4.6 mphPartly Cloudy
8:30 AM33.8 °F24.8 °F70 %29.92 in5.0 miENE (60°)4.6 mphPartly Cloudy
9:00 AM39.2 °F24.8 °F56 %29.92 in5.0 miCalmPartly Cloudy
9:30 AM39.2 °F24.8 °F56 %29.92 in5.0 miCalmPartly Cloudy
9:30 AM39.0 °F25.0 °F46 %30.00 in5.0 miCalmHaze
9:55 AM42.8 °F26.6 °F53 %29.92 in5.0 miEast (100°)4.6 mphPartly Cloudy
10:30 AM39.2 °F26.6 °F61 %29.92 in5.0 miENE (70°)4.6 mphPartly Cloudy
10:55 AM41.0 °F26.6 °F57 %29.92 in5.0 miEast (90°)4.6 mphPartly Cloudy
11:20 AM42.8 °F26.6 °F53 %29.92 in5.0 miENE (60°)4.6 mphPartly Cloudy
11:55 AM44.6 °F26.6 °F49 %29.92 in5.0 miEast (100°)4.6 mphPartly Cloudy
12:30 PM44.6 °F28.4 °F53 %29.89 in5.0 miEast (90°)4.6 mphPartly Cloudy
12:55 PM42.8 °F26.6 °F53 %29.89 in5.0 miSE (140°)4.6 mphPartly Cloudy
1:30 PM41.0 °F28.4 °F61 %29.89 in5.0 miSSE (150°)6.9 mphPartly Cloudy
2:00 PM44.6 °F30.2 °F57 %29.89 in3.1 miNE (40°)6.9 mphHaze
2:30 PM46.4 °F28.4 °F50 %29.89 in3.7 miEast (100°)4.6 mph
3:00 PM46.4 °F28.4 °F50 %29.89 in5.0 miESE (110°)6.9 mph
3:30 PM46.4 °F28.4 °F50 %29.89 in5.0 miSSE (150°)6.9 mph
3:55 PM44.6 °F30.2 °F57 %29.89 in4.3 miENE (70°)4.6 mph
4:30 PM39.2 °F30.2 °F70 %29.89 in3.7 miSSE (160°)4.6 mph
5:00 PM39.2 °F30.2 °F70 %29.89 in3.7 miCalm
5:30 PM37.4 °F30.2 °F75 %29.89 in3.7 miWest (260°)4.6 mph
5:55 PM37.4 °F28.4 °F70 %29.92 in4.3 miSSE (160°)4.6 mph
6:30 PM39.2 °F28.4 °F65 %29.92 in5.0 miWest (260°)6.9 mph
7:00 PM41.0 °F24.8 °F53 %29.92 in5.0 miWest (270°)9.2 mph
7:30 PM41.0 °F24.8 °F53 %29.92 in5.0 miWest (280°)11.5 mph
8:00 PM41.0 °F24.8 °F53 %29.95 inWest (280°)13.8 mphClear
8:30 PM41.0 °F24.8 °F53 %29.95 inWest (280°)9.2 mphClear
9:00 PM35.6 °F24.8 °F65 %29.95 inCalmClear
9:30 PM37.4 °F24.8 °F60 %29.95 inWSW (250°)4.6 mphClear
9:30 PM37.0 °F25.0 °F50 %30.02 in6.0 miWSW (250°)4.5 mph
10:00 PM33.8 °F26.6 °F75 %29.95 inSouth (190°)4.6 mphClear
10:30 PM33.8 °F24.8 °F70 %29.95 inCalmClear
11:00 PM32.0 °F24.8 °F75 %29.95 inSouth (170°)6.9 mphClear
11:30 PM32.0 °F24.8 °F75 %29.95 inSouth (170°)4.6 mphClear
Hourly data recorded from OIMM, located miles away from Mashhad, Iran







STORIES FROM OUR PARTNERS